Meknes, Morocco

5:41 PM WET on March 25, 2017 (GMT +0000)
Meknes

Weather History for GMFM - October, 2011

Change the Weather History Date:

Sunday, October 23, 2011

  Actual Average (GMFF) Record (GMFF)
Temperature  
Mean Temperature 64 °F -  
Max Temperature 71 °F 69 °F 96 °F (2004)
Min Temperature 58 °F 50 °F 48 °F (2000)
Growing Degree Days 14 (Base 50)    
Moisture  
Dew Point 55 °F    
Average Humidity 70    
Maximum Humidity 88    
Minimum Humidity 50    
Precipitation  
Precipitation 0.00 in 0.09 in - ()
Sea Level Pressure  
Sea Level Pressure 30.00 in    
Wind  
Wind Speed 5 mph ()    
Max Wind Speed 14 mph    
Max Gust Speed -    
Visibility 5.1 miles    
Events Thunderstorm    
Averages and records for this station are not official NWS values.
T = Trace of Precipitation, MM = Missing Value Source: Averaged Metar Reports

Daily Weather History Graph

Daily Weather History Graph

Search for Another Location

Airport or City:

Trip Planner

Search our weather history database for the weather conditions in past years. The results will help you decide how hot, cold, wet, or windy it might be!

Date:

Astronomy

Oct. 23, 2011 Rise Set
Actual Time 6:33 AM WET 5:39 PM WET
Civil Twilight 6:07 AM WET 6:04 PM WET
Nautical Twilight 5:38 AM WET 6:33 PM WET
Astronomical Twilight 5:09 AM WET 7:02 PM WET
Moon 2:34 AM WET (10/23) 3:13 PM WET (10/23)
Length of Visible Light 11h 56m
Length of Day
11h 06m
Waning Crescent, 16% of the Moon is Illuminated
Oct 23
Waning Crescent
Oct 26
New
Nov 2
First Quarter
Nov 10
Full
Nov 18
Last Quarter

Hourly Weather History & Observations

Time (WET) Temp. Dew Point Humidity Pressure Visibility Wind Dir Wind Speed Gust Speed Precip Events Conditions
12:00 AM 62 °F 56 °F 76% 30.02 in 6 mi WSW 8.1 mph - -   Mostly Cloudy
12:00 AM 62.6 °F 57.2 °F 82% 30.06 in 6.2 mi WSW 8.1 mph - N/A   Partly Cloudy
1:00 AM 62.6 °F 53.6 °F 72% 30.06 in 6.2 mi WSW 9.2 mph - N/A   Partly Cloudy
2:00 AM 57.2 °F 53.6 °F 88% 30.04 in 3.7 mi WSW 9.2 mph - N/A   Partly Cloudy
3:00 AM 62 °F 51 °F 59% 29.98 in 4 mi SSE 6.9 mph - -   Mostly Cloudy
3:00 AM 62.6 °F 51.8 °F 68% 30.01 in 3.7 mi SSE 6.9 mph - N/A   Partly Cloudy
4:00 AM 60.8 °F 51.8 °F 72% 30.04 in 3.7 mi WNW 13.8 mph - N/A   Mostly Cloudy
5:00 AM 59.0 °F 53.6 °F 82% 30.01 in 3.7 mi WNW 3.5 mph - N/A   Partly Cloudy
6:00 AM 59 °F 55 °F 82% 30.01 in 4 mi SSE 2.3 mph - -   Partly Cloudy
6:00 AM 59.0 °F 53.6 °F 82% 30.04 in 3.7 mi SSE 2.3 mph - N/A   Partly Cloudy
7:00 AM 59.0 °F 53.6 °F 82% 30.04 in 6.2 mi SSW 2.3 mph - N/A   Scattered Clouds
8:00 AM - - N/A% 30.06 in 6.2 mi Calm Calm - N/A   Scattered Clouds
9:00 AM 64 °F 55 °F 65% 30.02 in 6 mi ESE 2.3 mph - -   Partly Cloudy
9:00 AM 64.4 °F 55.4 °F 73% 30.06 in 6.2 mi ESE 2.3 mph - N/A   Scattered Clouds
10:00 AM 66.2 °F 53.6 °F 64% 30.06 in 6.2 mi SSW 2.3 mph - N/A   Scattered Clouds
11:00 AM 68.0 °F 53.6 °F 60% 30.04 in 6.2 mi West 6.9 mph - N/A   Scattered Clouds
12:00 PM 69 °F 56 °F 55% 29.96 in 5 mi West 6.9 mph - -   Partly Cloudy
12:00 PM 69.8 °F 57.2 °F 64% 30.04 in 5.0 mi West 6.9 mph - N/A   Scattered Clouds
1:00 PM 68.0 °F 57.2 °F 68% 30.01 in 5.0 mi NW 6.9 mph - N/A   Scattered Clouds
2:00 PM 68.0 °F 57.2 °F 68% 29.98 in 5.0 mi NNW 4.6 mph - N/A   Mostly Cloudy
3:00 PM 70 °F 55 °F 50% 29.89 in 5 mi West 6.9 mph - -   Mostly Cloudy
3:00 PM 69.8 °F 55.4 °F 60% 29.95 in 5.0 mi West 6.9 mph - N/A   Mostly Cloudy
4:00 PM 71.6 °F 55.4 °F 57% 29.95 in 5.0 mi WNW 6.9 mph - N/A   Mostly Cloudy
5:00 PM 69.8 °F 53.6 °F 56% 29.95 in 5.0 mi NW 3.5 mph - N/A   Mostly Cloudy
5:25 PM 68.0 °F 55.4 °F 64% 29.95 in 5.0 mi WNW 3.5 mph - N/A Thunderstorm Thunderstorm
7:00 PM 66.2 °F 57.2 °F 73% 29.95 in 5.0 mi NW 2.3 mph - N/A Thunderstorm Thunderstorm
7:15 PM 66.2 °F 57.2 °F 73% 29.95 in 5.0 mi NW 2.3 mph - N/A   Partly Cloudy
8:00 PM 62.6 °F 57.2 °F 82% 29.98 in 5.0 mi West 5.8 mph - N/A   Partly Cloudy
9:00 PM 62 °F 55 °F 72% 29.94 in 5 mi West 4.6 mph - -   Partly Cloudy
9:00 PM 62.6 °F 55.4 °F 77% 29.98 in 5.0 mi West 4.6 mph - N/A   Partly Cloudy
10:00 PM 60.8 °F 53.6 °F 77% 29.95 in 5.0 mi WSW 3.5 mph - N/A   Partly Cloudy
11:00 PM 60.8 °F 53.6 °F 77% 29.95 in 5.0 mi SSW 1.2 mph - N/A   Partly Cloudy